GW5240 Weather Reports


time (UTC)temp
C
wind
direction
speed
KPH
gust
KPH
rain 1hr
cm
rain 24hr
cm
rain mn
cm
humidity
%
barometer
mb
20260510212933 16 276 8.0 14.5 0.00 0.00 0.00 29 1020.4
20260510212431 16 53 4.8 8.0 0.00 0.00 0.00 29 1020.5
20260510211928 16 243 4.8 4.8 0.00 0.00 0.00 30 1020.2
20260510211425 16 255 9.7 14.5 0.00 0.00 0.00 28 1020.3
20260510210925 16 217 4.8 8.0 0.00 0.00 0.00 29 1020.2
20260510210420 17 70 17.7 24.1 0.00 0.00 0.00 28 1020.2
20260510205920 16 45 8.0 11.3 0.00 0.00 0.00 29 1020.4
20260510205415 16 244 9.7 11.3 0.00 0.00 0.00 29 1020.1
20260510204911 16 168 6.4 11.3 0.00 0.00 0.00 31 1020.2
20260510204408 17 142 3.2 4.8 0.00 0.00 0.00 29 1020.3
20260510203904 16 207 3.2 4.8 0.00 0.00 0.00 31 1020.1
20260510203402 16 324 4.8 4.8 0.00 0.00 0.00 29 1020.2
20260510202902 16 257 4.8 8.0 0.00 0.00 0.00 30 1020.2
20260510202358 16 314 3.2 4.8 0.00 0.00 0.00 31 1020.3
20260510201855 16 159 3.2 4.8 0.00 0.00 0.00 31 1020.5
20260510201352 16 341 3.2 8.0 0.00 0.00 0.00 29 1020.4
20260510200848 16 350 6.4 11.3 0.00 0.00 0.00 31 1020.3
20260510200347 16 72 8.0 11.3 0.00 0.00 0.00 31 1020.6
20260510195842 15 195 4.8 8.0 0.00 0.00 0.00 35 1020.5
20260510195340 16 100 6.4 8.0 0.00 0.00 0.00 31 1020.3
20260510194834 16 7 8.0 8.0 0.00 0.00 0.00 32 1020.4
20260510194331 16 105 11.3 14.5 0.00 0.00 0.00 32 1020.6
20260510193826 16 194 1.6 3.2 0.00 0.00 0.00 32 1020.4
20260510193322 15 351 9.7 14.5 0.00 0.00 0.00 32 1020.4
20260510192818 14 65 6.4 8.0 0.00 0.00 0.00 35 1020.4
20260510192313 14 166 6.4 14.5 0.00 0.00 0.00 33 1020.4
20260510191809 14 198 3.2 4.8 0.00 0.00 0.00 34 1020.5
20260510191305 15 359 8.0 8.0 0.00 0.00 0.00 33 1020.5
20260510190803 15 168 4.8 8.0 0.00 0.00 0.00 34 1020.3
20260510190300 15 13 9.7 16.1 0.00 0.00 0.00 34 1020.6
20260510185756 15 335 3.2 4.8 0.00 0.00 0.00 35 1020.2
20260510185255 15 23 12.9 16.1 0.00 0.00 0.00 34 1020.5
20260510184751 15 176 0.0 0.0 0.00 0.00 0.00 35 1020.4
20260510184249 16 97 9.7 14.5 0.00 0.00 0.00 34 1020.4
20260510183749 16 210 6.4 8.0 0.00 0.00 0.00 35 1020.4
20260510183244 15 263 9.7 16.1 0.00 0.00 0.00 35 1020.6
20260510182741 16 303 14.5 19.3 0.00 0.00 0.00 34 1020.3
20260510182236 15 196 6.4 8.0 0.00 0.00 0.00 36 1020.4
20260510181733 16 206 4.8 8.0 0.00 0.00 0.00 35 1020.5
20260510181231 16 207 4.8 4.8 0.00 0.00 0.00 35 1020.5
20260510180726 16 213 3.2 4.8 0.00 0.00 0.00 37 1020.5
20260510180224 16 213 4.8 8.0 0.00 0.00 0.00 36 1020.5
20260510175720 16 329 4.8 8.0 0.00 0.00 0.00 35 1020.6
20260510175216 15 193 3.2 4.8 0.00 0.00 0.00 39 1020.5
20260510174713 15 164 6.4 8.0 0.00 0.00 0.00 35 1020.6
20260510174211 15 321 9.7 11.3 0.00 0.00 0.00 35 1020.6
20260510173706 15 59 9.7 14.5 0.00 0.00 0.00 36 1020.6
20260510173202 15 61 9.7 19.3 0.00 0.00 0.00 38 1020.5
20260510172658 15 166 3.2 3.2 0.00 0.00 0.00 40 1020.7
20260510172154 15 342 14.5 16.1 0.00 0.00 0.00 41 1020.5
20260510171651 14 184 6.4 11.3 0.00 0.00 0.00 41 1020.6
20260510171149 14 8 4.8 8.0 0.00 0.00 0.00 40 1020.7
20260510170645 13 274 8.0 11.3 0.00 0.00 0.00 43 1020.6
20260510170141 14 105 4.8 8.0 0.00 0.00 0.00 40 1020.8
20260510165637 13 3 8.0 8.0 0.00 0.00 0.00 42 1020.7
20260510165133 14 160 3.2 4.8 0.00 0.00 0.00 42 1020.6
20260510164631 14 181 3.2 4.8 0.00 0.00 0.00 42 1020.8
20260510164128 13 213 6.4 8.0 0.00 0.00 0.00 42 1020.7
20260510163623 13 92 11.3 24.1 0.00 0.00 0.00 42 1020.7
20260510163119 14 18 8.0 11.3 0.00 0.00 0.00 41 1020.8
20260510162614 13 39 11.3 14.5 0.00 0.00 0.00 42 1020.8
20260510162111 13 340 4.8 4.8 0.00 0.00 0.00 43 1020.6
20260510161606 13 50 4.8 8.0 0.00 0.00 0.00 44 1020.6
20260510161104 13 156 8.0 16.1 0.00 0.00 0.00 43 1020.6
20260510160600 14 175 3.2 4.8 0.00 0.00 0.00 41 1020.7
20260510160100 13 330 3.2 4.8 0.00 0.00 0.00 43 1020.5
20260510155557 13 47 8.0 11.3 0.00 0.00 0.00 43 1020.6
20260510155054 12 349 9.7 11.3 0.00 0.00 0.00 45 1020.5
20260510154549 12 4 8.0 11.3 0.00 0.00 0.00 44 1020.7
20260510154045 12 354 9.7 14.5 0.00 0.00 0.00 45 1020.5
20260510153539 12 351 6.4 8.0 0.00 0.00 0.00 44 1020.4
20260510153037 12 144 3.2 3.2 0.00 0.00 0.00 45 1020.5
20260510152534 11 341 1.6 3.2 0.00 0.00 0.00 46 1020.6
20260510152030 11 60 3.2 4.8 0.00 0.00 0.00 46 1020.5
20260510151526 11 240 3.2 4.8 0.00 0.00 0.00 45 1020.4
20260510151024 11 37 9.7 11.3 0.00 0.00 0.00 46 1020.5
20260510150519 12 104 4.8 4.8 0.00 0.00 0.00 46 1020.4
20260510150015 11 206 3.2 4.8 0.00 0.00 0.00 46 1020.3
20260510145512 11 60 3.2 3.2 0.00 0.00 0.00 45 1020.6
20260510145008 11 169 3.2 3.2 0.00 0.00 0.00 47 1020.3
20260510144505 11 91 3.2 4.8 0.00 0.00 0.00 48 1020.4
20260510144001 11 138 6.4 8.0 0.00 0.00 0.00 49 1020.5
20260510143457 11 195 4.8 8.0 0.00 0.00 0.00 48 1020.4
20260510142953 10 332 4.8 8.0 0.00 0.00 0.00 49 1020.3
20260510142450 10 3 4.8 4.8 0.00 0.00 0.00 49 1020.2
20260510141947 10 194 3.2 8.0 0.00 0.00 0.00 48 1020.2
20260510141443 11 148 1.6 3.2 0.00 0.00 0.00 49 1020.2
20260510140941 10 0 6.4 8.0 0.00 0.00 0.00 49 1020.2
20260510140432 10 140 3.2 4.8 0.00 0.00 0.00 51 1020.2
20260510135931 10 28 3.2 4.8 0.00 0.00 0.00 50 1020.2
20260510135427 10 181 4.8 8.0 0.00 0.00 0.00 51 1020.0
20260510134924 10 113 1.6 3.2 0.00 0.00 0.00 52 1020.3
20260510134421 10 339 4.8 4.8 0.00 0.00 0.00 53 1020.1
20260510133917 9 167 1.6 3.2 0.00 0.00 0.00 53 1019.9
20260510133413 9 154 0.0 0.0 0.00 0.00 0.00 55 1020.0
20260510132908 8 155 0.0 0.0 0.00 0.00 0.00 56 1020.1
20260510132407 8 68 1.6 3.2 0.00 0.00 0.00 55 1019.9
20260510131903 8 135 3.2 3.2 0.00 0.00 0.00 55 1019.7
20260510131401 8 142 0.0 3.2 0.00 0.00 0.00 55 1020.0
20260510130858 8 65 3.2 4.8 0.00 0.00 0.00 55 1019.9
20260510130355 8 10 4.8 4.8 0.00 0.00 0.00 56 1019.8
20260510125851 8 10 3.2 3.2 0.00 0.00 0.00 56 1019.7
20260510125347 8 187 3.2 4.8 0.00 0.00 0.00 56 1019.6
20260510124844 8 134 1.6 3.2 0.00 0.00 0.00 57 1019.5
20260510124341 8 156 0.0 0.0 0.00 0.00 0.00 56 1019.6
20260510123836 8 164 0.0 0.0 0.00 0.00 0.00 57 1019.6
20260510123332 8 162 0.0 0.0 0.00 0.00 0.00 57 1019.6
20260510122829 8 138 0.0 0.0 0.00 0.00 0.00 58 1019.5
20260510122324 7 196 0.0 0.0 0.00 0.00 0.00 58 1019.5
20260510121821 7 164 0.0 0.0 0.00 0.00 0.00 58 1019.5
20260510121319 7 123 3.2 4.8 0.00 0.00 0.00 58 1019.4
20260510120816 7 19 3.2 4.8 0.00 0.00 0.00 59 1019.2
20260510120313 7 123 3.2 3.2 0.00 0.00 0.00 58 1019.2
20260510115808 7 153 0.0 0.0 0.00 0.00 0.00 60 1019.1
20260510115307 6 115 0.0 3.2 0.00 0.00 0.00 62 1019.1
20260510114802 6 355 3.2 8.0 0.00 0.00 0.00 65 1018.9
20260510114259 5 170 0.0 0.0 0.00 0.00 0.00 69 1019.1
20260510113753 5 172 0.0 0.0 0.00 0.00 0.00 73 1019.0
20260510113251 5 159 0.0 0.0 0.00 0.00 0.00 76 1018.9
20260510112747 4 160 0.0 0.0 0.00 0.00 0.00 77 1018.8
20260510112244 4 160 0.0 0.0 0.00 0.00 0.00 77 1018.7
20260510111740 4 160 0.0 0.0 0.00 0.00 0.00 77 1018.5
20260510111237 3 170 0.0 0.0 0.00 0.00 0.00 78 1018.5
20260510110736 3 176 0.0 0.0 0.00 0.00 0.00 78 1018.5
20260510110235 3 176 0.0 0.0 0.00 0.00 0.00 78 1018.4
20260510105734 3 176 0.0 0.0 0.00 0.00 0.00 78 1018.3
20260510105229 3 176 0.0 0.0 0.00 0.00 0.00 78 1018.1
20260510104726 3 176 0.0 0.0 0.00 0.00 0.00 78 1018.2
20260510104224 3 176 0.0 0.0 0.00 0.00 0.00 78 1018.2
20260510103720 3 169 0.0 0.0 0.00 0.00 0.00 79 1017.9
20260510103217 3 167 0.0 0.0 0.00 0.00 0.00 80 1017.9
20260510102716 2 167 0.0 0.0 0.00 0.00 0.00 82 1017.9
20260510102212 2 167 0.0 0.0 0.00 0.00 0.00 82 1017.8
20260510101710 2 167 0.0 0.0 0.00 0.00 0.00 82 1017.7
20260510101209 2 167 0.0 0.0 0.00 0.00 0.00 81 1017.9
20260510100704 2 167 0.0 0.0 0.00 0.00 0.00 80 1017.7
20260510100202 2 167 0.0 0.0 0.00 0.00 0.00 80 1017.7
20260510095657 2 167 0.0 0.0 0.00 0.00 0.00 79 1017.8
20260510095152 2 167 0.0 0.0 0.00 0.00 0.00 79 1017.7
20260510094651 2 167 0.0 0.0 0.00 0.00 0.00 79 1017.4
20260510094147 2 167 0.0 0.0 0.00 0.00 0.00 79 1017.3
20260510093643 2 167 0.0 0.0 0.00 0.00 0.00 79 1017.2
20260510093141 2 167 0.0 0.0 0.00 0.00 0.00 78 1017.2
20260510092637 2 167 0.0 0.0 0.00 0.00 0.00 78 1017.2
20260510092132 2 167 0.0 0.0 0.00 0.00 0.00 78 1017.1
20260510091629 2 167 0.0 0.0 0.00 0.00 0.00 78 1017.2
20260510091125 2 167 0.0 0.0 0.00 0.00 0.00 77 1017.2
20260510090622 2 167 0.0 0.0 0.00 0.00 0.00 76 1017.3
20260510090118 2 167 0.0 0.0 0.00 0.00 0.00 76 1017.1
20260510085613 3 167 0.0 0.0 0.00 0.00 0.00 75 1016.8
20260510085109 3 167 0.0 0.0 0.00 0.00 0.00 75 1017.1
20260510084606 3 167 0.0 0.0 0.00 0.00 0.00 74 1016.6
20260510084102 3 167 0.0 0.0 0.00 0.00 0.00 74 1016.7
20260510083559 3 167 0.0 0.0 0.00 0.00 0.00 73 1016.6
20260510083055 3 167 0.0 0.0 0.00 0.00 0.00 73 1016.5
20260510082552 3 167 0.0 0.0 0.00 0.00 0.00 72 1016.5
20260510082048 3 167 0.0 0.0 0.00 0.00 0.00 72 1016.1
20260510081543 3 167 0.0 0.0 0.00 0.00 0.00 72 1016.4
20260510081039 3 167 0.0 0.0 0.00 0.00 0.00 72 1016.3
20260510080538 3 167 0.0 0.0 0.00 0.00 0.00 71 1016.4
20260510080035 3 167 0.0 0.0 0.00 0.00 0.00 69 1016.2
20260510075532 3 167 0.0 0.0 0.00 0.00 0.00 69 1016.1
20260510075029 4 167 0.0 0.0 0.00 0.00 0.00 68 1016.2
20260510074527 4 167 0.0 0.0 0.00 0.00 0.00 68 1016.1
20260510074022 4 167 0.0 0.0 0.00 0.00 0.00 67 1016.1
20260510073518 4 167 0.0 0.0 0.00 0.00 0.00 67 1016.3
20260510073015 4 167 0.0 0.0 0.00 0.00 0.00 67 1016.2
20260510072512 4 167 0.0 0.0 0.00 0.00 0.00 66 1016.2
20260510072007 5 167 0.0 0.0 0.00 0.00 0.00 65 1016.0
20260510071504 4 167 0.0 0.0 0.00 0.00 0.00 65 1016.3
20260510071002 4 167 0.0 0.0 0.00 0.00 0.00 65 1016.3
20260510070459 4 167 0.0 0.0 0.00 0.00 0.00 66 1016.2
20260510065954 4 167 0.0 0.0 0.00 0.00 0.00 65 1016.2
20260510065452 4 167 0.0 0.0 0.00 0.00 0.00 64 1016.2
20260510064948 5 167 0.0 0.0 0.00 0.00 0.00 63 1016.2
20260510064445 5 167 0.0 0.0 0.00 0.00 0.00 62 1016.2
20260510063942 5 167 0.0 0.0 0.00 0.00 0.00 61 1016.3
20260510063438 6 167 0.0 0.0 0.00 0.00 0.00 60 1016.1
20260510062936 6 167 0.0 0.0 0.00 0.00 0.00 60 1016.1
20260510062430 6 167 0.0 0.0 0.00 0.00 0.00 59 1016.3
20260510061926 6 170 0.0 0.0 0.00 0.00 0.00 57 1016.1
20260510061423 6 170 0.0 0.0 0.00 0.00 0.00 57 1016.1
20260510060919 6 170 0.0 0.0 0.00 0.00 0.00 58 1016.1
20260510060416 6 170 0.0 0.0 0.00 0.00 0.00 58 1016.1
20260510055913 6 170 0.0 0.0 0.00 0.00 0.00 58 1016.1
20260510055408 6 170 0.0 0.0 0.00 0.00 0.00 58 1015.8
20260510054906 5 170 0.0 0.0 0.00 0.00 0.00 59 1016.0
20260510054401 6 170 0.0 0.0 0.00 0.00 0.00 57 1016.1
20260510053857 6 170 0.0 0.0 0.00 0.00 0.00 56 1016.1
20260510053352 6 170 0.0 0.0 0.00 0.00 0.00 56 1015.9
20260510052849 6 170 0.0 0.0 0.00 0.00 0.00 55 1015.9
20260510052345 6 170 0.0 0.0 0.00 0.00 0.00 54 1015.7
20260510051841 6 170 0.0 0.0 0.00 0.00 0.00 54 1016.0
20260510051338 7 170 0.0 0.0 0.00 0.00 0.00 53 1015.8
20260510050835 7 170 0.0 0.0 0.00 0.00 0.00 51 1015.7
20260510050331 7 170 0.0 0.0 0.00 0.00 0.00 49 1015.6
20260510045829 8 170 0.0 0.0 0.00 0.00 0.00 49 1015.7
20260510045325 8 170 0.0 0.0 0.00 0.00 0.00 48 1015.8
20260510044822 8 170 0.0 0.0 0.00 0.00 0.00 48 1015.6
20260510044319 8 170 0.0 0.0 0.00 0.00 0.00 47 1015.8
20260510043816 8 170 0.0 0.0 0.00 0.00 0.00 46 1015.8
20260510043312 8 169 0.0 0.0 0.00 0.00 0.00 45 1015.8
20260510042810 9 169 0.0 0.0 0.00 0.00 0.00 45 1015.8
20260510042307 9 165 0.0 0.0 0.00 0.00 0.00 44 1015.5
20260510041801 10 168 0.0 0.0 0.00 0.00 0.00 43 1015.7
20260510041259 10 170 0.0 0.0 0.00 0.00 0.00 42 1015.7
20260510040757 10 173 0.0 3.2 0.00 0.00 0.00 42 1015.5
20260510040253 10 183 1.6 3.2 0.00 0.00 0.00 42 1015.5
20260510035749 10 156 0.0 3.2 0.00 0.00 0.00 42 1015.4
20260510035244 10 168 0.0 0.0 0.00 0.00 0.00 42 1015.3
20260510034740 10 194 0.0 0.0 0.00 0.00 0.00 41 1015.2
20260510034238 10 208 0.0 3.2 0.00 0.00 0.00 41 1015.1
20260510033734 10 307 3.2 4.8 0.00 0.00 0.00 40 1015.2
20260510033232 10 146 0.0 0.0 0.00 0.00 0.00 40 1015.0
20260510032728 10 274 1.6 3.2 0.00 0.00 0.00 40 1014.8
20260510032224 10 183 1.6 3.2 0.00 0.00 0.00 40 1015.0
20260510031719 11 168 0.0 0.0 0.00 0.00 0.00 40 1015.0
20260510031216 11 167 0.0 0.0 0.00 0.00 0.00 40 1014.8
20260510030715 11 168 0.0 0.0 0.00 0.00 0.00 39 1014.6
20260510030213 11 222 0.0 0.0 0.00 0.00 0.00 39 1014.5
20260510025710 11 174 0.0 0.0 0.00 0.00 0.00 39 1014.4
20260510025207 11 159 0.0 0.0 0.00 0.00 0.00 39 1014.4
20260510024704 11 92 1.6 3.2 0.00 0.00 0.00 39 1014.4
20260510024200 11 247 3.2 4.8 0.00 0.00 0.00 38 1014.3
20260510023656 11 248 3.2 3.2 0.00 0.00 0.00 37 1014.2
20260510023154 11 206 0.0 0.0 0.00 0.00 0.00 37 1014.1
20260510022649 12 179 0.0 3.2 0.00 0.00 0.00 37 1014.0
20260510022144 12 168 1.6 3.2 0.00 0.00 0.00 37 1013.9
20260510021640 12 355 6.4 8.0 0.00 0.00 0.00 36 1013.7
20260510021138 12 205 3.2 3.2 0.00 0.00 0.00 36 1013.8
20260510020637 12 168 3.2 4.8 0.00 0.00 0.00 36 1013.4
20260510020133 12 179 0.0 3.2 0.00 0.00 0.00 35 1013.3
20260510015629 12 141 1.6 3.2 0.00 0.00 0.00 35 1013.3
20260510015126 12 11 3.2 4.8 0.00 0.00 0.00 35 1013.1
20260510014621 12 46 6.4 8.0 0.00 0.00 0.00 34 1013.1
20260510014119 13 265 4.8 4.8 0.00 0.00 0.00 34 1012.9
20260510013619 13 173 0.0 3.2 0.00 0.00 0.00 34 1013.1
20260510013115 13 286 6.4 11.3 0.00 0.00 0.00 33 1012.9
20260510012613 13 313 11.3 14.5 0.00 0.00 0.00 33 1012.6
20260510012111 13 132 4.8 8.0 0.00 0.00 0.00 34 1012.5
20260510011610 13 170 3.2 3.2 0.00 0.00 0.00 33 1012.5
20260510011106 13 321 1.6 3.2 0.00 0.00 0.00 34 1012.2
20260510010603 13 1 9.7 14.5 0.00 0.00 0.00 33 1012.2
20260510010100 13 306 3.2 4.8 0.00 0.00 0.00 32 1012.2
20260510005555 13 259 3.2 3.2 0.00 0.00 0.00 33 1012.3
20260510005053 14 207 1.6 3.2 0.00 0.00 0.00 32 1012.0
20260510004551 14 337 3.2 4.8 0.00 0.00 0.00 33 1012.1
20260510004049 15 264 4.8 8.0 0.00 0.00 0.00 32 1012.0
20260510003545 15 198 3.2 4.8 0.00 0.00 0.00 32 1011.9
20260510003041 15 197 3.2 4.8 0.00 0.00 0.00 32 1011.8
20260510002536 15 296 8.0 11.3 0.00 0.00 0.00 31 1011.8
20260510002034 15 64 1.6 3.2 0.00 0.00 0.00 32 1011.8
20260510001531 15 281 1.6 3.2 0.00 0.00 0.00 32 1011.9
20260510001029 15 29 6.4 8.0 0.00 0.00 0.00 32 1011.8
20260510000524 15 168 0.0 3.2 0.00 0.00 0.00 32 1011.4
20260510000021 15 141 3.2 4.8 0.00 0.00 0.00 32 1011.5
20260509235518 15 295 8.0 11.3 0.00 0.00 0.00 32 1011.5
20260509235015 15 102 1.6 3.2 0.00 0.00 0.00 32 1011.7
20260509234511 15 193 3.2 8.0 0.00 0.00 0.00 31 1011.5
20260509234009 15 176 3.2 4.8 0.00 0.00 0.00 31 1011.5
20260509233506 15 313 3.2 8.0 0.00 0.00 0.00 30 1011.1
20260509233003 15 19 8.0 11.3 0.00 0.00 0.00 30 1011.3
20260509232500 15 359 9.7 19.3 0.00 0.00 0.00 30 1011.3
20260509231956 15 101 4.8 4.8 0.00 0.00 0.00 29 1011.2
20260509231453 16 248 8.0 14.5 0.00 0.00 0.00 29 1011.2
20260509230951 16 195 8.0 16.1 0.00 0.00 0.00 30 1011.1
20260509230447 16 300 3.2 4.8 0.00 0.00 0.00 30 1011.1
20260509225943 16 290 8.0 11.3 0.00 0.00 0.00 30 1011.1
20260509225440 16 105 9.7 16.1 0.00 0.00 0.00 29 1011.0
20260509224936 16 2 8.0 14.5 0.00 0.00 0.00 29 1011.0
20260509224431 16 348 3.2 4.8 0.00 0.00 0.00 30 1010.8
20260509223929 16 33 9.7 11.3 0.00 0.00 0.00 28 1010.7
20260509223425 16 339 3.2 4.8 0.00 0.00 0.00 30 1010.6
20260509222923 16 5 8.0 11.3 0.00 0.00 0.00 30 1010.7
20260509222418 16 292 6.4 11.3 0.00 0.00 0.00 30 1010.7
20260509221914 16 12 9.7 11.3 0.00 0.00 0.00 29 1010.7
20260509221411 16 235 6.4 11.3 0.00 0.00 0.00 29 1010.5
20260509220907 17 280 8.0 11.3 0.00 0.00 0.00 29 1010.7
20260509220402 17 197 1.6 3.2 0.00 0.00 0.00 30 1010.6
20260509215858 17 353 4.8 4.8 0.00 0.00 0.00 28 1010.5
20260509215355 17 300 8.0 11.3 0.00 0.00 0.00 31 1010.3
20260509214852 16 218 3.2 4.8 0.00 0.00 0.00 31 1010.4
20260509214349 17 183 3.2 3.2 0.00 0.00 0.00 30 1010.4
20260509213846 17 292 8.0 11.3 0.00 0.00 0.00 29 1010.4
20260509213341 17 0 6.4 11.3 0.00 0.00 0.00 31 1010.3